{"data":{"norad_id":59370,"intl_designator":"2024-060Y","name":"STARLINK-31461","alt_names":[],"object_type":"PAYLOAD","status":"ACTIVE","operator":null,"country":"US","launch_date":"2024-03-31","launch_site_code":"AFETR","launch_vehicle":null,"mission":null,"orbit_class":"UNKNOWN","rcs_meters":null,"size_class":null,"mass_kg":null,"dimensions":null,"purposes":["comms"],"wikipedia_slug":null,"has_3d_model":false,"image_url":null,"decayed_at":null,"tle_current":{"epoch":"2026-05-24T13:46:59.165760Z","epoch_age_seconds":118806,"freshness":"FRESH","line1":"1 59370U 24060Y   26144.57429590  .00000955  00000+0  44218-4 0  9995","line2":"2 59370  43.0000 180.4608 0001514 272.6732  87.3946 15.27587506121737","mean_motion":15.27587506,"eccentricity":0.0001514,"inclination_deg":43,"raan_deg":180.4608,"arg_perigee_deg":272.6732,"mean_anomaly_deg":87.3946,"bstar":4.4218e-5,"rev_number":12173,"period_min":94.266285521715,"perigee_km":481.98784029528,"apogee_km":484.06540063955,"semimajor_km":6861.1636204674,"source":"CELESTRAK","updated_at":"2026-05-25T13:38:18.912948Z"}}}